User: anonymous   Login
Location: Gerlach
(40.6516°N, 119.3568°W)
Time: 23:22:56
(UTC-07:00)
Language:

SO-50 - Orbit

View from above orbital plane
View from above orbital plane
View from above satellite
View from above satellite

Ground track
Ground track

The orbit data is extracted from the following two-line orbital elements,

1 27607U 02058C   24202.93915826  .00003442  00000-0  47870-3 0  9992
2 27607  64.5559 117.7913 0025560  94.5190 265.8835 14.79181127161313
Epoch (UTC): 20 July 2024 22:32:23
Eccentricity: 0.0025560
inclination: 64.5559°
perigee height: 614 km
apogee height: 650 km
right ascension of ascending node: 117.7913°
argument of perigee: 94.5190°
revolutions per day: 14.79181127
mean anomaly at epoch: 265.8835°
orbit number at epoch: 16131

The dashed part of the orbit path shows where the satellite is in the earth's shadow,  

DLR